Time,TemperatureF,DewpointF,PressureIn,WindDirection,WindDirectionDegrees,WindSpeedMPH,WindSpeedGustMPH,Humidity,HourlyPrecipIn,Conditions,Clouds,dailyrainin,SoftwareType,DateUTC
2013-03-18 00:00:00,30.0,20.1,29.99,ESE,118,9.3,16.7,66,0.00,,,0.00,WUHU216WMR100,2013-03-18 05:00:00,
2013-03-18 00:05:00,30.0,20.1,29.99,SE,144,10.4,19.6,66,0.00,,,0.00,WUHU216WMR100,2013-03-18 05:05:00,
2013-03-18 00:10:00,30.0,20.4,29.99,ESE,122,9.0,22.9,67,0.00,,,0.00,WUHU216WMR100,2013-03-18 05:10:00,
2013-03-18 00:15:00,29.8,20.2,29.99,East,94,12.0,22.9,67,0.00,,,0.00,WUHU216WMR100,2013-03-18 05:15:00,
2013-03-18 00:20:00,29.8,20.6,29.99,SSE,157,17.3,17.3,68,0.00,,,0.00,WUHU216WMR100,2013-03-18 05:20:00,
2013-03-18 00:25:00,29.8,20.2,29.99,SSE,157,12.5,17.3,67,0.00,,,0.00,WUHU216WMR100,2013-03-18 05:25:00,
2013-03-18 00:30:00,29.7,20.1,29.96,SSE,153,12.9,21.1,67,0.00,,,0.00,WUHU216WMR100,2013-03-18 05:30:00,
2013-03-18 00:35:00,29.8,20.2,29.96,ESE,114,13.9,21.1,67,0.00,,,0.00,WUHU216WMR100,2013-03-18 05:35:00,
2013-03-18 00:40:00,29.7,20.1,29.96,ESE,112,11.9,18.1,67,0.00,,,0.00,WUHU216WMR100,2013-03-18 05:40:00,
2013-03-18 00:45:00,29.7,20.1,29.96,ESE,120,11.1,17.3,67,0.00,,,0.00,WUHU216WMR100,2013-03-18 05:45:00,
2013-03-18 00:50:00,29.7,20.1,29.96,SE,129,12.4,17.3,67,0.00,,,0.00,WUHU216WMR100,2013-03-18 05:50:00,
2013-03-18 00:55:00,29.7,20.1,29.96,SSW,202,8.1,16.7,67,0.00,,,0.00,WUHU216WMR100,2013-03-18 05:55:00,
2013-03-18 01:00:00,29.7,20.5,29.96,ENE,67,12.9,15.8,68,0.00,,,0.00,WUHU216WMR100,2013-03-18 06:00:00,
2013-03-18 01:05:00,29.5,20.6,29.96,ESE,115,8.0,14.4,69,0.00,,,0.00,WUHU216WMR100,2013-03-18 06:05:00,
2013-03-18 01:10:00,29.5,20.6,29.96,SSE,157,12.9,14.4,69,0.00,,,0.00,WUHU216WMR100,2013-03-18 06:10:00,
2013-03-18 01:15:00,29.5,20.6,29.93,SSE,157,13.4,13.4,69,0.00,,,0.00,WUHU216WMR100,2013-03-18 06:15:00,
2013-03-18 01:20:00,29.5,20.3,29.93,SSE,151,21.0,23.3,68,0.00,,,0.00,WUHU216WMR100,2013-03-18 06:20:00,
2013-03-18 01:25:00,29.5,20.6,29.93,SSE,157,12.9,23.3,69,0.00,,,0.00,WUHU216WMR100,2013-03-18 06:25:00,
2013-03-18 01:30:00,29.5,20.6,29.93,SE,141,11.4,13.4,69,0.00,,,0.00,WUHU216WMR100,2013-03-18 06:30:00,
2013-03-18 01:35:00,29.5,20.6,29.93,SE,127,11.6,15.2,69,0.00,,,0.00,WUHU216WMR100,2013-03-18 06:35:00,
2013-03-18 01:40:00,29.5,20.6,29.93,ESE,112,10.4,15.2,69,0.00,,,0.00,WUHU216WMR100,2013-03-18 06:40:00,
2013-03-18 01:45:00,29.5,20.6,29.90,SE,131,11.7,17.0,69,0.00,,,0.00,WUHU216WMR100,2013-03-18 06:45:00,
2013-03-18 01:50:00,29.5,20.6,29.90,SSE,157,11.9,17.0,69,0.00,,,0.00,WUHU216WMR100,2013-03-18 06:50:00,
2013-03-18 01:55:00,29.5,21.0,29.90,ESE,111,10.4,16.2,70,0.00,,,0.00,WUHU216WMR100,2013-03-18 06:55:00,
2013-03-18 02:00:00,29.5,21.0,29.90,SSE,157,13.4,13.4,70,0.00,,,0.00,WUHU216WMR100,2013-03-18 07:00:00,
2013-03-18 02:05:00,29.5,21.3,29.90,SE,135,9.2,13.4,71,0.00,,,0.00,WUHU216WMR100,2013-03-18 07:05:00,
2013-03-18 02:10:00,29.7,21.2,29.90,SE,127,10.8,13.4,70,0.00,,,0.00,WUHU216WMR100,2013-03-18 07:10:00,
2013-03-18 02:15:00,29.8,21.3,29.90,SW,225,9.2,13.4,70,0.00,,,0.00,WUHU216WMR100,2013-03-18 07:15:00,
2013-03-18 02:20:00,29.8,21.3,29.90,SSE,166,7.7,12.9,70,0.00,,,0.00,WUHU216WMR100,2013-03-18 07:20:00,
2013-03-18 02:25:00,29.8,20.9,29.90,SSE,159,15.3,17.3,69,0.00,,,0.00,WUHU216WMR100,2013-03-18 07:25:00,
2013-03-18 02:30:00,30.0,21.5,29.90,ENE,67,6.3,17.3,70,0.00,,,0.00,WUHU216WMR100,2013-03-18 07:30:00,
2013-03-18 02:35:00,29.8,21.3,29.90,East,90,11.1,11.1,70,0.00,,,0.00,WUHU216WMR100,2013-03-18 07:35:00,
2013-03-18 02:40:00,30.0,21.1,29.90,SE,135,17.0,17.7,69,0.00,,,0.00,WUHU216WMR100,2013-03-18 07:40:00,
2013-03-18 02:45:00,30.0,21.1,29.90,SE,146,10.3,17.7,69,0.00,,,0.00,WUHU216WMR100,2013-03-18 07:45:00,
2013-03-18 02:50:00,30.0,21.1,29.90,ENE,67,14.4,17.0,69,0.00,,,0.00,WUHU216WMR100,2013-03-18 07:50:00,
2013-03-18 02:55:00,30.2,21.0,29.90,SSE,155,12.4,16.2,68,0.00,,,0.00,WUHU216WMR100,2013-03-18 07:55:00,
2013-03-18 03:00:00,30.2,21.3,29.87,ESE,120,6.6,14.4,69,0.00,,,0.00,WUHU216WMR100,2013-03-18 08:00:00,
2013-03-18 03:05:00,30.2,21.3,29.87,ESE,102,9.2,14.0,69,0.00,,,0.00,WUHU216WMR100,2013-03-18 08:05:00,
2013-03-18 03:10:00,30.2,21.3,29.87,SE,127,8.7,11.9,69,0.00,,,0.00,WUHU216WMR100,2013-03-18 08:10:00,
2013-03-18 03:15:00,30.2,21.0,29.87,ESE,112,13.4,23.9,68,0.00,,,0.00,WUHU216WMR100,2013-03-18 08:15:00,
2013-03-18 03:20:00,30.2,21.0,29.87,WSW,241,12.5,23.9,68,0.00,,,0.00,WUHU216WMR100,2013-03-18 08:20:00,
2013-03-18 03:25:00,30.4,21.2,29.87,ESE,110,8.3,16.7,68,0.00,,,0.00,WUHU216WMR100,2013-03-18 08:25:00,
2013-03-18 03:30:00,30.4,21.2,29.84,SSE,150,10.1,14.4,68,0.00,,,0.00,WUHU216WMR100,2013-03-18 08:30:00,
2013-03-18 03:35:00,30.4,21.5,29.84,SE,142,7.2,14.4,69,0.00,,,0.00,WUHU216WMR100,2013-03-18 08:35:00,
2013-03-18 03:40:00,30.4,21.5,29.84,SE,131,11.2,12.5,69,0.00,,,0.00,WUHU216WMR100,2013-03-18 08:40:00,
2013-03-18 03:45:00,30.4,21.8,29.82,SSE,148,8.3,13.4,70,0.00,,,0.00,WUHU216WMR100,2013-03-18 08:45:00,
2013-03-18 03:50:00,30.2,22.0,29.82,ESE,105,14.4,21.8,71,0.00,,,0.00,WUHU216WMR100,2013-03-18 08:50:00,
2013-03-18 03:55:00,30.2,22.3,29.82,ESE,112,10.4,21.8,72,0.00,,,0.00,WUHU216WMR100,2013-03-18 08:55:00,
2013-03-18 04:00:00,30.2,22.6,29.82,ESE,102,13.0,17.3,73,0.00,,,0.00,WUHU216WMR100,2013-03-18 09:00:00,
2013-03-18 04:05:00,30.2,22.6,29.82,ENE,67,11.9,17.3,73,0.00,,,0.00,WUHU216WMR100,2013-03-18 09:05:00,
2013-03-18 04:10:00,30.2,23.0,29.82,ESE,122,6.7,12.9,74,0.00,,,0.00,WUHU216WMR100,2013-03-18 09:10:00,
2013-03-18 04:15:00,30.2,23.0,29.79,SSE,157,13.4,13.4,74,0.00,,,0.00,WUHU216WMR100,2013-03-18 09:15:00,
2013-03-18 04:20:00,30.2,23.0,29.79,East,97,13.1,15.5,74,0.00,,,0.00,WUHU216WMR100,2013-03-18 09:20:00,
2013-03-18 04:25:00,30.2,23.0,29.79,East,101,12.4,18.1,74,0.00,,,0.00,WUHU216WMR100,2013-03-18 09:25:00,
2013-03-18 04:30:00,30.2,23.0,29.79,SSE,157,10.4,18.1,74,0.00,,,0.00,WUHU216WMR100,2013-03-18 09:30:00,
2013-03-18 04:35:00,30.2,23.0,29.79,ESE,112,14.0,14.7,74,0.00,,,0.00,WUHU216WMR100,2013-03-18 09:35:00,
2013-03-18 04:40:00,30.4,23.1,29.79,East,90,11.1,14.7,74,0.00,,,0.00,WUHU216WMR100,2013-03-18 09:40:00,
2013-03-18 04:45:00,30.4,23.1,29.79,ESE,108,10.8,14.7,74,0.00,,,0.00,WUHU216WMR100,2013-03-18 09:45:00,
2013-03-18 04:50:00,30.4,23.1,29.79,ESE,112,13.3,15.8,74,0.00,,,0.00,WUHU216WMR100,2013-03-18 09:50:00,
2013-03-18 04:55:00,30.4,23.1,29.79,SE,130,9.9,15.8,74,0.00,,,0.00,WUHU216WMR100,2013-03-18 09:55:00,
2013-03-18 05:00:00,30.4,23.1,29.79,ESE,113,8.0,10.7,74,0.00,,,0.00,WUHU216WMR100,2013-03-18 10:00:00,
2013-03-18 05:05:00,30.6,23.7,29.79,East,90,10.4,10.4,75,0.00,,,0.00,WUHU216WMR100,2013-03-18 10:05:00,
2013-03-18 05:10:00,30.6,23.7,29.79,East,90,12.2,14.0,75,0.00,,,0.00,WUHU216WMR100,2013-03-18 10:10:00,
2013-03-18 05:15:00,30.4,23.5,29.79,ESE,112,13.4,14.0,75,0.00,,,0.00,WUHU216WMR100,2013-03-18 10:15:00,
2013-03-18 05:20:00,30.4,23.5,29.79,SSE,149,9.6,13.4,75,0.00,,,0.00,WUHU216WMR100,2013-03-18 10:20:00,
2013-03-18 05:25:00,30.4,23.8,29.79,ESE,123,14.1,16.2,76,0.00,,,0.00,WUHU216WMR100,2013-03-18 10:25:00,
2013-03-18 05:30:00,30.4,24.1,29.79,East,82,10.7,16.2,77,0.00,,,0.00,WUHU216WMR100,2013-03-18 10:30:00,
2013-03-18 05:35:00,30.4,24.4,29.79,SE,134,10.1,17.0,78,0.00,,,0.00,WUHU216WMR100,2013-03-18 10:35:00,
2013-03-18 05:40:00,30.4,24.7,29.79,SSE,153,14.8,21.1,79,0.00,,,0.00,WUHU216WMR100,2013-03-18 10:40:00,
2013-03-18 05:45:00,30.4,24.7,29.79,SSW,202,10.7,21.1,79,0.00,,,0.00,WUHU216WMR100,2013-03-18 10:45:00,
2013-03-18 05:50:00,30.4,25.0,29.79,SSE,157,16.7,16.7,80,0.00,,,0.00,WUHU216WMR100,2013-03-18 10:50:00,
2013-03-18 05:55:00,30.4,25.0,29.79,SSE,157,10.7,16.7,80,0.00,,,0.00,WUHU216WMR100,2013-03-18 10:55:00,
2013-03-18 06:00:00,30.2,25.1,29.79,ESE,112,11.9,16.7,81,0.00,,,0.00,WUHU216WMR100,2013-03-18 11:00:00,
2013-03-18 06:05:00,30.2,25.1,29.79,SSE,157,18.1,18.1,81,0.00,,,0.00,WUHU216WMR100,2013-03-18 11:05:00,
2013-03-18 06:10:00,30.2,25.1,29.79,ESE,105,6.9,18.1,81,0.00,,,0.00,WUHU216WMR100,2013-03-18 11:10:00,
2013-03-18 06:15:00,30.2,25.4,29.76,SSE,157,8.9,18.1,82,0.00,,,0.00,WUHU216WMR100,2013-03-18 11:15:00,
2013-03-18 06:20:00,30.2,25.4,29.76,ENE,67,9.2,11.9,82,0.00,,,0.00,WUHU216WMR100,2013-03-18 11:20:00,
2013-03-18 06:25:00,30.2,25.6,29.76,SSE,157,8.0,18.1,83,0.00,,,0.00,WUHU216WMR100,2013-03-18 11:25:00,
2013-03-18 06:30:00,30.2,25.9,29.76,SE,135,7.6,18.1,84,0.00,,,0.00,WUHU216WMR100,2013-03-18 11:30:00,
2013-03-18 06:35:00,30.2,25.9,29.76,ESE,108,9.0,10.4,84,0.00,,,0.00,WUHU216WMR100,2013-03-18 11:35:00,
2013-03-18 06:40:00,30.2,25.6,29.76,East,90,11.9,15.8,83,0.00,,,0.00,WUHU216WMR100,2013-03-18 11:40:00,
2013-03-18 06:45:00,30.2,25.9,29.76,NE,36,14.3,18.5,84,0.00,,,0.00,WUHU216WMR100,2013-03-18 11:45:00,
2013-03-18 06:50:00,30.2,26.5,29.76,ESE,120,9.0,18.5,86,0.00,,,0.00,WUHU216WMR100,2013-03-18 11:50:00,
2013-03-18 06:55:00,30.2,26.8,29.76,SSE,152,9.4,12.5,87,0.00,,,0.00,WUHU216WMR100,2013-03-18 11:55:00,
2013-03-18 07:00:00,30.2,26.8,29.76,ESE,119,7.5,11.4,87,0.00,,,0.00,WUHU216WMR100,2013-03-18 12:00:00,
2013-03-18 07:05:00,30.2,27.0,29.76,ESE,112,17.3,17.3,88,0.00,,,0.00,WUHU216WMR100,2013-03-18 12:05:00,
2013-03-18 07:10:00,30.2,27.3,29.76,SSE,150,9.3,17.3,89,0.00,,,0.00,WUHU216WMR100,2013-03-18 12:10:00,
2013-03-18 07:16:00,30.2,27.6,29.76,SE,141,9.5,12.2,90,0.00,,,0.00,WUHU216WMR100,2013-03-18 12:16:00,
2013-03-18 07:21:00,30.2,27.6,29.76,ESE,103,6.9,10.7,90,0.00,,,0.00,WUHU216WMR100,2013-03-18 12:21:00,
2013-03-18 07:25:00,30.0,27.6,29.76,ENE,67,7.1,10.4,91,0.00,,,0.00,WUHU216WMR100,2013-03-18 12:25:00,
2013-03-18 07:31:00,30.2,27.8,29.73,ESE,112,5.1,10.4,91,0.00,,,0.00,WUHU216WMR100,2013-03-18 12:31:00,
2013-03-18 07:35:00,30.2,28.1,29.73,East,90,6.3,10.4,92,0.00,,,0.00,WUHU216WMR100,2013-03-18 12:35:00,
2013-03-18 07:41:00,30.2,28.6,29.73,East,89,7.9,10.4,94,0.00,,,0.00,WUHU216WMR100,2013-03-18 12:41:00,
2013-03-18 07:46:00,30.2,28.9,29.73,ESE,112,11.9,11.9,95,0.00,,,0.00,WUHU216WMR100,2013-03-18 12:46:00,
2013-03-18 07:51:00,30.2,29.2,29.73,ESE,112,9.9,12.2,96,0.00,,,0.00,WUHU216WMR100,2013-03-18 12:51:00,
2013-03-18 07:56:00,30.2,29.4,29.73,ESE,112,7.1,12.2,97,0.00,,,0.00,WUHU216WMR100,2013-03-18 12:56:00,
2013-03-18 08:01:00,30.4,29.6,29.73,ESE,112,8.9,10.4,97,0.00,,,0.00,WUHU216WMR100,2013-03-18 13:01:00,
2013-03-18 08:06:00,30.4,29.6,29.73,SE,142,10.3,12.2,97,0.00,,,0.00,WUHU216WMR100,2013-03-18 13:06:00,
2013-03-18 08:11:00,30.6,29.8,29.73,East,90,14.0,17.7,97,0.00,,,0.00,WUHU216WMR100,2013-03-18 13:11:00,
2013-03-18 08:16:00,30.6,29.8,29.70,ESE,108,6.7,17.7,97,0.00,,,0.00,WUHU216WMR100,2013-03-18 13:16:00,
2013-03-18 08:21:00,30.7,29.9,29.70,ENE,67,11.9,12.9,97,0.00,,,0.00,WUHU216WMR100,2013-03-18 13:21:00,
2013-03-18 08:26:00,30.7,29.9,29.70,South,171,7.7,14.0,97,0.00,,,0.00,WUHU216WMR100,2013-03-18 13:26:00,
2013-03-18 08:31:00,30.7,29.9,29.70,SE,127,9.7,14.0,97,0.00,,,0.00,WUHU216WMR100,2013-03-18 13:31:00,
2013-03-18 08:36:00,30.7,29.9,29.70,ESE,118,10.8,17.7,97,0.00,,,0.00,WUHU216WMR100,2013-03-18 13:36:00,
2013-03-18 08:41:00,30.9,30.1,29.70,ESE,112,7.4,17.7,97,0.00,,,0.00,WUHU216WMR100,2013-03-18 13:41:00,
2013-03-18 08:46:00,30.9,30.1,29.70,South,176,8.4,14.4,97,0.00,,,0.00,WUHU216WMR100,2013-03-18 13:46:00,
2013-03-18 08:51:00,31.1,30.3,29.70,SSE,157,13.4,14.4,97,0.00,,,0.00,WUHU216WMR100,2013-03-18 13:51:00,
2013-03-18 08:56:00,31.1,30.3,29.70,ESE,123,9.6,13.4,97,0.00,,,0.00,WUHU216WMR100,2013-03-18 13:56:00,
2013-03-18 09:01:00,31.3,30.5,29.67,ESE,112,9.2,13.4,97,0.00,,,0.00,WUHU216WMR100,2013-03-18 14:01:00,
2013-03-18 09:06:00,31.3,30.5,29.67,SSE,151,13.3,14.0,97,0.00,,,0.00,WUHU216WMR100,2013-03-18 14:06:00,
2013-03-18 09:11:00,31.3,30.5,29.67,South,172,9.5,14.0,97,0.00,,,0.00,WUHU216WMR100,2013-03-18 14:11:00,
2013-03-18 09:16:00,31.5,30.7,29.67,ESE,112,12.6,16.7,97,0.00,,,0.00,WUHU216WMR100,2013-03-18 14:16:00,
2013-03-18 09:21:00,31.5,30.7,29.67,SSE,157,9.6,16.7,97,0.00,,,0.00,WUHU216WMR100,2013-03-18 14:21:00,
2013-03-18 09:26:00,31.6,30.8,29.67,SSE,152,7.2,11.1,97,0.00,,,0.00,WUHU216WMR100,2013-03-18 14:26:00,
2013-03-18 09:31:00,31.6,30.8,29.67,ESE,112,7.1,11.1,97,0.00,,,0.00,WUHU216WMR100,2013-03-18 14:31:00,
2013-03-18 09:36:00,31.6,30.8,29.67,ESE,112,6.6,11.4,97,0.00,,,0.00,WUHU216WMR100,2013-03-18 14:36:00,
2013-03-18 09:41:00,31.6,30.8,29.67,ESE,112,9.2,11.4,97,0.00,,,0.00,WUHU216WMR100,2013-03-18 14:41:00,
2013-03-18 09:46:00,31.6,30.8,29.67,East,101,6.2,9.2,97,0.00,,,0.00,WUHU216WMR100,2013-03-18 14:46:00,
2013-03-18 09:51:00,31.8,31.0,29.67,ESE,112,6.7,9.6,97,0.00,,,0.00,WUHU216WMR100,2013-03-18 14:51:00,
2013-03-18 09:56:00,31.8,30.8,29.67,SE,135,8.9,9.6,96,0.00,,,0.00,WUHU216WMR100,2013-03-18 14:56:00,
2013-03-18 10:01:00,31.8,31.0,29.67,SE,135,10.7,12.2,97,0.00,,,0.00,WUHU216WMR100,2013-03-18 15:01:00,
2013-03-18 10:06:00,32.0,31.2,29.67,SE,142,5.2,12.2,97,0.00,,,0.00,WUHU216WMR100,2013-03-18 15:06:00,
2013-03-18 10:10:00,32.0,31.2,29.67,SSE,157,8.1,10.7,97,0.00,,,0.00,WUHU216WMR100,2013-03-18 15:10:00,
2013-03-18 10:15:00,32.2,31.4,29.67,SE,143,9.3,12.5,97,0.00,,,0.00,WUHU216WMR100,2013-03-18 15:15:00,
2013-03-18 10:20:00,32.2,31.4,29.67,SSE,157,13.4,14.0,97,0.00,,,0.00,WUHU216WMR100,2013-03-18 15:20:00,
2013-03-18 10:25:00,32.2,31.7,29.67,SE,135,15.8,15.8,98,0.00,,,0.00,WUHU216WMR100,2013-03-18 15:25:00,
2013-03-18 10:30:00,32.2,31.9,29.67,SE,135,5.6,15.8,99,0.00,,,0.00,WUHU216WMR100,2013-03-18 15:30:00,
2013-03-18 10:35:00,32.4,32.1,29.67,SE,139,6.0,12.9,99,0.00,,,0.00,WUHU216WMR100,2013-03-18 15:35:00,
2013-03-18 10:40:00,32.5,32.2,29.67,SE,135,5.6,6.6,99,0.00,,,0.00,WUHU216WMR100,2013-03-18 15:40:00,
2013-03-18 10:45:00,32.5,32.2,29.67,SE,135,8.9,8.9,99,0.00,,,0.00,WUHU216WMR100,2013-03-18 15:45:00,
2013-03-18 10:50:00,32.5,32.2,29.67,ESE,112,9.2,9.2,99,0.00,,,0.00,WUHU216WMR100,2013-03-18 15:50:00,
2013-03-18 10:55:00,32.5,32.2,29.67,SE,134,6.1,9.2,99,0.00,,,0.00,WUHU216WMR100,2013-03-18 15:55:00,
2013-03-18 11:00:00,32.7,32.4,29.64,SSE,157,5.9,9.2,99,0.00,,,0.00,WUHU216WMR100,2013-03-18 16:00:00,
2013-03-18 11:05:00,32.7,32.4,29.64,ESE,112,6.6,9.2,99,0.00,,,0.00,WUHU216WMR100,2013-03-18 16:05:00,
2013-03-18 11:10:00,32.7,32.4,29.64,SSE,152,6.3,9.6,99,0.00,,,0.00,WUHU216WMR100,2013-03-18 16:10:00,
2013-03-18 11:15:00,32.7,32.4,29.64,ESE,121,8.0,9.6,99,0.00,,,0.00,WUHU216WMR100,2013-03-18 16:15:00,
2013-03-18 11:21:00,33.1,32.8,29.64,ESE,112,9.2,9.2,99,0.00,,,0.00,WUHU216WMR100,2013-03-18 16:21:00,
2013-03-18 11:26:00,33.1,32.8,29.64,SE,135,5.1,9.6,99,0.00,,,0.00,WUHU216WMR100,2013-03-18 16:26:00,
2013-03-18 11:31:00,33.1,32.8,29.64,ENE,67,6.3,9.6,99,0.00,,,0.00,WUHU216WMR100,2013-03-18 16:31:00,
2013-03-18 11:36:00,33.1,32.8,29.64,ESE,112,6.3,8.1,99,0.00,,,0.00,WUHU216WMR100,2013-03-18 16:36:00,
2013-03-18 11:41:00,33.3,33.0,29.64,ESE,112,4.8,6.6,99,0.00,,,0.00,WUHU216WMR100,2013-03-18 16:41:00,
2013-03-18 11:46:00,33.3,33.0,29.64,SSE,157,6.6,9.9,99,0.00,,,0.00,WUHU216WMR100,2013-03-18 16:46:00,
2013-03-18 11:51:00,33.3,33.0,29.64,SSE,157,3.0,9.9,99,0.00,,,0.00,WUHU216WMR100,2013-03-18 16:51:00,
2013-03-18 11:56:00,33.4,33.1,29.64,SE,142,2.9,6.6,99,0.00,,,0.00,WUHU216WMR100,2013-03-18 16:56:00,
2013-03-18 12:01:00,33.6,33.1,29.64,ESE,112,0.0,3.6,98,0.00,,,0.00,WUHU216WMR100,2013-03-18 17:01:00,
2013-03-18 12:06:00,33.6,33.1,29.64,ESE,112,0.0,0.0,98,0.00,,,0.00,WUHU216WMR100,2013-03-18 17:06:00,
2013-03-18 12:11:00,33.6,33.1,29.64,SSE,157,0.0,0.0,98,0.00,,,0.00,WUHU216WMR100,2013-03-18 17:11:00,
2013-03-18 12:16:00,33.6,33.1,29.61,SSE,157,0.0,0.0,98,0.00,,,0.00,WUHU216WMR100,2013-03-18 17:16:00,
2013-03-18 12:21:00,33.6,33.1,29.61,ESE,112,0.0,0.0,98,0.04,,,0.04,WUHU216WMR100,2013-03-18 17:21:00,
2013-03-18 12:26:00,33.8,33.3,29.61,ESE,118,8.7,9.6,98,0.04,,,0.04,WUHU216WMR100,2013-03-18 17:26:00,
2013-03-18 12:31:00,33.8,33.3,29.61,SSE,157,5.9,9.6,98,0.04,,,0.04,WUHU216WMR100,2013-03-18 17:31:00,
2013-03-18 12:36:00,33.8,33.3,29.61,ESE,115,6.9,9.2,98,0.04,,,0.04,WUHU216WMR100,2013-03-18 17:36:00,
2013-03-18 12:41:00,34.0,33.5,29.61,SSE,157,3.5,9.2,98,0.04,,,0.04,WUHU216WMR100,2013-03-18 17:41:00,
2013-03-18 12:46:00,34.2,33.7,29.61,SSE,157,2.1,7.1,98,0.04,,,0.04,WUHU216WMR100,2013-03-18 17:46:00,
2013-03-18 12:51:00,34.3,33.8,29.61,SSE,157,3.3,6.3,98,0.04,,,0.04,WUHU216WMR100,2013-03-18 17:51:00,
2013-03-18 12:56:00,34.5,34.0,29.61,South,169,4.1,6.6,98,0.04,,,0.04,WUHU216WMR100,2013-03-18 17:56:00,
2013-03-18 13:01:00,34.7,34.2,29.61,SSE,157,3.2,6.6,98,0.04,,,0.04,WUHU216WMR100,2013-03-18 18:01:00,
2013-03-18 13:05:00,34.9,34.4,29.61,SSE,157,4.1,4.8,98,0.04,,,0.04,WUHU216WMR100,2013-03-18 18:05:00,
2013-03-18 13:11:00,34.9,34.1,29.61,SSE,168,2.5,4.1,97,0.04,,,0.04,WUHU216WMR100,2013-03-18 18:11:00,
2013-03-18 13:15:00,34.9,34.1,29.58,SSE,158,3.2,4.1,97,0.04,,,0.04,WUHU216WMR100,2013-03-18 18:15:00,
2013-03-18 13:20:00,35.1,34.3,29.58,SSW,197,1.9,3.3,97,0.00,,,0.04,WUHU216WMR100,2013-03-18 18:20:00,
2013-03-18 13:25:00,35.1,34.3,29.58,SSE,157,2.1,5.1,97,0.00,,,0.04,WUHU216WMR100,2013-03-18 18:25:00,
2013-03-18 13:30:00,35.2,34.4,29.61,South,180,2.6,5.1,97,0.00,,,0.04,WUHU216WMR100,2013-03-18 18:30:00,
2013-03-18 13:35:00,35.2,34.1,29.61,SSW,202,2.6,4.1,96,0.00,,,0.04,WUHU216WMR100,2013-03-18 18:35:00,
2013-03-18 13:40:00,35.2,34.1,29.61,WSW,247,4.1,4.1,96,0.00,,,0.04,WUHU216WMR100,2013-03-18 18:40:00,
2013-03-18 13:45:00,35.1,34.0,29.61,SSW,202,6.3,6.3,96,0.00,,,0.04,WUHU216WMR100,2013-03-18 18:45:00,
2013-03-18 13:50:00,34.9,33.8,29.61,WSW,247,4.1,6.3,96,0.00,,,0.04,WUHU216WMR100,2013-03-18 18:50:00,
2013-03-18 13:55:00,34.9,33.8,29.61,SW,225,5.0,5.9,96,0.00,,,0.04,WUHU216WMR100,2013-03-18 18:55:00,
2013-03-18 14:00:00,34.9,33.8,29.61,SW,232,5.8,6.3,96,0.00,,,0.04,WUHU216WMR100,2013-03-18 19:00:00,
2013-03-18 14:05:00,34.9,33.8,29.61,SSW,211,5.5,6.6,96,0.00,,,0.04,WUHU216WMR100,2013-03-18 19:05:00,
2013-03-18 14:10:00,34.9,33.8,29.61,South,180,4.8,6.6,96,0.00,,,0.04,WUHU216WMR100,2013-03-18 19:10:00,
2013-03-18 14:15:00,34.9,33.8,29.61,SSW,202,3.0,4.8,96,0.00,,,0.04,WUHU216WMR100,2013-03-18 19:15:00,
2013-03-18 14:20:00,35.1,34.3,29.61,SSW,202,3.3,4.8,97,0.00,,,0.04,WUHU216WMR100,2013-03-18 19:20:00,
2013-03-18 14:25:00,35.2,34.4,29.61,SW,225,2.6,4.1,97,0.00,,,0.04,WUHU216WMR100,2013-03-18 19:25:00,
2013-03-18 14:30:00,35.6,34.8,29.58,SSW,208,1.9,4.1,97,0.00,,,0.04,WUHU216WMR100,2013-03-18 19:30:00,
2013-03-18 14:35:00,35.6,34.8,29.58,SSE,157,3.3,9.2,97,0.00,,,0.04,WUHU216WMR100,2013-03-18 19:35:00,
2013-03-18 14:40:00,35.8,35.0,29.58,SW,225,5.1,9.2,97,0.00,,,0.04,WUHU216WMR100,2013-03-18 19:40:00,
2013-03-18 14:45:00,35.8,35.0,29.58,SW,225,8.1,8.1,97,0.00,,,0.04,WUHU216WMR100,2013-03-18 19:45:00,
2013-03-18 14:50:00,35.6,34.8,29.58,SSW,202,3.3,8.1,97,0.00,,,0.04,WUHU216WMR100,2013-03-18 19:50:00,
2013-03-18 14:55:00,35.8,35.0,29.58,West,263,5.7,6.6,97,0.00,,,0.04,WUHU216WMR100,2013-03-18 19:55:00,
2013-03-18 15:00:00,35.6,34.5,29.58,NW,319,5.4,7.1,96,0.00,,,0.04,WUHU216WMR100,2013-03-18 20:00:00,
2013-03-18 15:05:00,35.4,34.3,29.58,SW,216,5.0,8.1,96,0.00,,,0.04,WUHU216WMR100,2013-03-18 20:05:00,
2013-03-18 15:10:00,35.6,34.5,29.58,WSW,247,10.4,10.4,96,0.00,,,0.04,WUHU216WMR100,2013-03-18 20:10:00,
2013-03-18 15:15:00,35.4,34.3,29.58,WSW,247,5.9,10.4,96,0.00,,,0.04,WUHU216WMR100,2013-03-18 20:15:00,
2013-03-18 15:20:00,35.4,34.3,29.58,WSW,254,7.2,12.5,96,0.00,,,0.04,WUHU216WMR100,2013-03-18 20:20:00,
2013-03-18 15:25:00,35.2,33.9,29.58,SW,236,6.2,12.5,95,0.00,,,0.04,WUHU216WMR100,2013-03-18 20:25:00,
2013-03-18 15:30:00,35.1,33.5,29.58,WNW,292,8.1,14.0,94,0.00,,,0.04,WUHU216WMR100,2013-03-18 20:30:00,
2013-03-18 15:36:00,34.9,33.0,29.58,WSW,247,4.8,14.0,93,0.00,,,0.04,WUHU216WMR100,2013-03-18 20:36:00,
2013-03-18 15:41:00,34.7,32.8,29.58,SW,225,7.5,8.9,93,0.00,,,0.04,WUHU216WMR100,2013-03-18 20:41:00,
2013-03-18 15:46:00,34.7,32.8,29.58,WNW,292,7.8,9.6,93,0.00,,,0.04,WUHU216WMR100,2013-03-18 20:46:00,
2013-03-18 15:50:00,34.7,32.8,29.58,West,271,8.2,9.6,93,0.00,,,0.04,WUHU216WMR100,2013-03-18 20:50:00,
2013-03-18 15:55:00,34.7,32.8,29.58,West,260,4.4,12.9,93,0.00,,,0.04,WUHU216WMR100,2013-03-18 20:55:00,
2013-03-18 16:00:00,34.9,33.3,29.61,West,270,6.2,12.9,94,0.00,,,0.04,WUHU216WMR100,2013-03-18 21:00:00,
2013-03-18 16:06:00,35.1,33.5,29.61,West,275,2.7,7.1,94,0.00,,,0.04,WUHU216WMR100,2013-03-18 21:06:00,
2013-03-18 16:11:00,35.4,34.1,29.61,WNW,292,4.8,6.3,95,0.00,,,0.04,WUHU216WMR100,2013-03-18 21:11:00,
2013-03-18 16:15:00,35.4,34.1,29.61,WNW,292,7.8,8.1,95,0.00,,,0.04,WUHU216WMR100,2013-03-18 21:15:00,
2013-03-18 16:20:00,35.4,33.8,29.61,WSW,256,5.1,8.1,94,0.00,,,0.04,WUHU216WMR100,2013-03-18 21:20:00,
2013-03-18 16:25:00,35.4,33.5,29.61,WSW,247,12.9,12.9,93,0.00,,,0.04,WUHU216WMR100,2013-03-18 21:25:00,
2013-03-18 16:30:00,35.4,33.5,29.61,WSW,247,6.6,12.9,93,0.00,,,0.04,WUHU216WMR100,2013-03-18 21:30:00,
2013-03-18 16:36:00,35.2,33.1,29.61,NW,306,8.3,15.5,92,0.00,,,0.04,WUHU216WMR100,2013-03-18 21:36:00,
2013-03-18 16:41:00,35.2,32.8,29.61,West,281,6.7,15.5,91,0.00,,,0.04,WUHU216WMR100,2013-03-18 21:41:00,
2013-03-18 16:46:00,35.4,33.0,29.61,WNW,287,11.2,14.0,91,0.00,,,0.04,WUHU216WMR100,2013-03-18 21:46:00,
2013-03-18 16:51:00,35.4,33.0,29.61,WSW,247,10.4,14.0,91,0.00,,,0.04,WUHU216WMR100,2013-03-18 21:51:00,
2013-03-18 16:56:00,35.4,33.0,29.61,WNW,292,6.6,16.2,91,0.00,,,0.04,WUHU216WMR100,2013-03-18 21:56:00,
2013-03-18 17:01:00,35.6,33.2,29.61,WNW,294,6.4,16.2,91,0.00,,,0.04,WUHU216WMR100,2013-03-18 22:01:00,
2013-03-18 17:06:00,35.4,33.3,29.61,NW,304,5.5,7.8,92,0.00,,,0.04,WUHU216WMR100,2013-03-18 22:06:00,
2013-03-18 17:11:00,35.6,33.5,29.61,WSW,247,5.9,7.8,92,0.00,,,0.04,WUHU216WMR100,2013-03-18 22:11:00,
2013-03-18 17:16:00,35.6,33.5,29.61,WSW,247,10.7,16.2,92,0.00,,,0.04,WUHU216WMR100,2013-03-18 22:16:00,
2013-03-18 17:21:00,35.6,33.2,29.61,WNW,292,5.1,16.2,91,0.00,,,0.04,WUHU216WMR100,2013-03-18 22:21:00,
2013-03-18 17:26:00,35.6,33.5,29.61,WSW,247,11.9,11.9,92,0.00,,,0.04,WUHU216WMR100,2013-03-18 22:26:00,
2013-03-18 17:31:00,35.6,33.2,29.61,WNW,292,8.5,13.4,91,0.00,,,0.04,WUHU216WMR100,2013-03-18 22:31:00,
2013-03-18 17:36:00,35.4,32.7,29.61,WSW,247,9.6,14.0,90,0.00,,,0.04,WUHU216WMR100,2013-03-18 22:36:00,
2013-03-18 17:41:00,35.4,32.4,29.61,West,266,10.1,17.0,89,0.00,,,0.04,WUHU216WMR100,2013-03-18 22:41:00,
2013-03-18 17:46:00,35.4,32.2,29.64,WNW,292,10.7,17.0,88,0.00,,,0.04,WUHU216WMR100,2013-03-18 22:46:00,
2013-03-18 17:51:00,35.4,32.2,29.64,WNW,290,6.7,12.5,88,0.00,,,0.04,WUHU216WMR100,2013-03-18 22:51:00,
2013-03-18 17:56:00,35.4,32.2,29.64,WNW,292,9.2,11.9,88,0.00,,,0.04,WUHU216WMR100,2013-03-18 22:56:00,
2013-03-18 18:01:00,35.4,32.4,29.64,WSW,247,12.9,12.9,89,0.00,,,0.04,WUHU216WMR100,2013-03-18 23:01:00,
2013-03-18 18:06:00,35.6,32.4,29.64,WNW,294,11.4,13.4,88,0.00,,,0.04,WUHU216WMR100,2013-03-18 23:06:00,
2013-03-18 18:11:00,35.6,32.4,29.64,West,270,12.5,13.4,88,0.00,,,0.04,WUHU216WMR100,2013-03-18 23:11:00,
2013-03-18 18:16:00,35.6,32.4,29.64,WSW,247,6.6,12.9,88,0.00,,,0.04,WUHU216WMR100,2013-03-18 23:16:00,
2013-03-18 18:21:00,35.6,32.4,29.64,WNW,285,5.1,12.9,88,0.00,,,0.04,WUHU216WMR100,2013-03-18 23:21:00,
2013-03-18 18:26:00,35.8,32.6,29.64,WNW,292,8.9,20.3,88,0.00,,,0.04,WUHU216WMR100,2013-03-18 23:26:00,
2013-03-18 18:31:00,35.8,32.6,29.64,WNW,300,11.0,20.3,88,0.00,,,0.04,WUHU216WMR100,2013-03-18 23:31:00,
2013-03-18 18:36:00,35.8,32.3,29.64,West,265,6.4,12.9,87,0.00,,,0.04,WUHU216WMR100,2013-03-18 23:36:00,
2013-03-18 18:41:00,35.8,32.3,29.64,SW,225,12.5,12.5,87,0.00,,,0.04,WUHU216WMR100,2013-03-18 23:41:00,
2013-03-18 18:46:00,36.0,32.5,29.64,WSW,247,12.2,12.5,87,0.00,,,0.04,WUHU216WMR100,2013-03-18 23:46:00,
2013-03-18 18:51:00,36.0,32.5,29.64,SSW,202,10.7,12.5,87,0.00,,,0.04,WUHU216WMR100,2013-03-18 23:51:00,
2013-03-18 18:57:00,35.8,32.6,29.64,SSW,202,14.0,15.8,88,0.00,,,0.04,WUHU216WMR100,2013-03-18 23:57:00,
2013-03-18 19:02:00,35.8,32.8,29.67,WSW,247,16.7,16.7,89,0.00,,,0.04,WUHU216WMR100,2013-03-19 00:02:00,
2013-03-18 19:07:00,35.8,33.1,29.67,WNW,292,12.9,16.7,90,0.00,,,0.04,WUHU216WMR100,2013-03-19 00:07:00,
2013-03-18 19:12:00,35.8,33.1,29.67,West,278,11.3,16.7,90,0.00,,,0.04,WUHU216WMR100,2013-03-19 00:12:00,
2013-03-18 19:17:00,35.6,32.9,29.67,WNW,292,12.9,14.4,90,0.00,,,0.04,WUHU216WMR100,2013-03-19 00:17:00,
2013-03-18 19:22:00,35.6,32.6,29.67,WNW,292,21.8,21.8,89,0.00,,,0.04,WUHU216WMR100,2013-03-19 00:22:00,
2013-03-18 19:27:00,34.9,31.4,29.67,West,276,12.6,21.8,87,0.00,,,0.04,WUHU216WMR100,2013-03-19 00:27:00,
2013-03-18 19:32:00,34.3,30.8,29.67,WNW,303,13.6,21.8,87,0.00,,,0.04,WUHU216WMR100,2013-03-19 00:32:00,
2013-03-18 19:37:00,33.8,29.7,29.67,WNW,302,14.7,20.3,85,0.00,,,0.04,WUHU216WMR100,2013-03-19 00:37:00,
2013-03-18 19:42:00,33.3,28.7,29.67,WSW,247,17.7,24.4,83,0.00,,,0.04,WUHU216WMR100,2013-03-19 00:42:00,
2013-03-18 19:47:00,32.9,27.7,29.70,SW,232,9.2,24.4,81,0.00,,,0.04,WUHU216WMR100,2013-03-19 00:47:00,
2013-03-18 19:52:00,32.7,27.2,29.70,West,274,15.6,38.0,80,0.00,,,0.04,WUHU216WMR100,2013-03-19 00:52:00,
2013-03-18 19:57:00,32.5,26.7,29.70,WNW,290,15.5,38.0,79,0.00,,,0.04,WUHU216WMR100,2013-03-19 00:57:00,
2013-03-18 20:02:00,32.5,25.8,29.70,WNW,292,20.0,25.4,76,0.00,,,0.04,WUHU216WMR100,2013-03-19 01:02:00,
2013-03-18 20:07:00,32.4,25.1,29.70,NW,317,12.3,25.4,74,0.00,,,0.04,WUHU216WMR100,2013-03-19 01:07:00,
2013-03-18 20:12:00,32.2,24.2,29.70,WSW,257,16.7,25.4,72,0.00,,,0.04,WUHU216WMR100,2013-03-19 01:12:00,
2013-03-18 20:17:00,32.0,24.0,29.70,WNW,292,24.4,24.4,72,0.00,,,0.04,WUHU216WMR100,2013-03-19 01:17:00,
2013-03-18 20:22:00,31.5,22.2,29.70,WNW,292,19.6,24.4,68,0.00,,,0.04,WUHU216WMR100,2013-03-19 01:22:00,
2013-03-18 20:27:00,30.9,20.2,29.73,West,270,20.3,24.4,64,0.00,,,0.04,WUHU216WMR100,2013-03-19 01:27:00,
2013-03-18 20:32:00,30.6,19.2,29.73,WNW,292,18.1,20.3,62,0.00,,,0.04,WUHU216WMR100,2013-03-19 01:32:00,
2013-03-18 20:38:00,30.2,19.2,29.73,North,0,14.7,20.3,63,0.00,,,0.04,WUHU216WMR100,2013-03-19 01:38:00,
2013-03-18 20:43:00,30.0,18.2,29.73,NW,305,11.8,23.9,61,0.00,,,0.04,WUHU216WMR100,2013-03-19 01:43:00,
2013-03-18 20:48:00,29.8,18.8,29.73,WSW,247,18.1,23.9,63,0.00,,,0.04,WUHU216WMR100,2013-03-19 01:48:00,
2013-03-18 20:53:00,29.7,18.3,29.73,WSW,247,21.8,23.6,62,0.00,,,0.04,WUHU216WMR100,2013-03-19 01:53:00,
2013-03-18 20:58:00,29.5,17.7,29.73,WNW,292,20.0,21.8,61,0.00,,,0.04,WUHU216WMR100,2013-03-19 01:58:00,
2013-03-18 21:03:00,28.9,15.2,29.73,WNW,292,23.9,23.9,56,0.00,,,0.04,WUHU216WMR100,2013-03-19 02:03:00,
2013-03-18 21:08:00,28.6,15.3,29.73,WSW,247,10.7,25.1,57,0.00,,,0.04,WUHU216WMR100,2013-03-19 02:08:00,
2013-03-18 21:13:00,28.4,15.1,29.73,West,270,17.0,25.1,57,0.00,,,0.04,WUHU216WMR100,2013-03-19 02:13:00,
2013-03-18 21:18:00,28.0,15.1,29.73,NW,319,16.5,28.4,58,0.00,,,0.04,WUHU216WMR100,2013-03-19 02:18:00,
2013-03-18 21:23:00,27.9,15.1,29.73,NNW,330,8.9,28.4,58,0.00,,,0.04,WUHU216WMR100,2013-03-19 02:23:00,
2013-03-18 21:28:00,27.7,14.9,29.76,WNW,292,17.7,23.3,58,0.00,,,0.04,WUHU216WMR100,2013-03-19 02:28:00,
2013-03-18 21:33:00,27.5,15.1,29.76,NW,314,12.2,23.3,59,0.00,,,0.04,WUHU216WMR100,2013-03-19 02:33:00,
2013-03-18 21:38:00,27.5,15.1,29.76,WNW,285,17.9,21.8,59,0.00,,,0.04,WUHU216WMR100,2013-03-19 02:38:00,
2013-03-18 21:43:00,27.1,13.5,29.76,WNW,292,13.6,21.8,56,0.00,,,0.04,WUHU216WMR100,2013-03-19 02:43:00,
2013-03-18 21:48:00,27.0,13.4,29.76,WNW,292,20.6,20.6,56,0.00,,,0.04,WUHU216WMR100,2013-03-19 02:48:00,
2013-03-18 21:53:00,26.8,13.2,29.76,WNW,292,21.8,21.8,56,0.00,,,0.04,WUHU216WMR100,2013-03-19 02:53:00,
2013-03-18 21:58:00,26.6,13.0,29.76,WSW,247,18.8,21.8,56,0.00,,,0.04,WUHU216WMR100,2013-03-19 02:58:00,
2013-03-18 22:03:00,26.6,12.6,29.76,WSW,247,15.8,21.8,55,0.00,,,0.04,WUHU216WMR100,2013-03-19 03:03:00,
2013-03-18 22:08:00,26.4,12.4,29.76,WNW,299,13.4,20.3,55,0.00,,,0.04,WUHU216WMR100,2013-03-19 03:08:00,
2013-03-18 22:13:00,26.4,12.4,29.76,NW,315,20.3,20.3,55,0.00,,,0.04,WUHU216WMR100,2013-03-19 03:13:00,
2013-03-18 22:18:00,26.4,12.8,29.76,NW,305,15.3,20.3,56,0.00,,,0.04,WUHU216WMR100,2013-03-19 03:18:00,
2013-03-18 22:23:00,26.4,13.2,29.76,WNW,294,18.4,20.6,57,0.00,,,0.04,WUHU216WMR100,2013-03-19 03:23:00,
2013-03-18 22:28:00,26.4,13.6,29.76,West,262,6.8,20.6,58,0.00,,,0.04,WUHU216WMR100,2013-03-19 03:28:00,
2013-03-18 22:33:00,26.4,14.0,29.76,WSW,247,12.2,22.9,59,0.00,,,0.04,WUHU216WMR100,2013-03-19 03:33:00,
2013-03-18 22:38:00,26.2,14.2,29.76,WSW,247,16.7,22.9,60,0.00,,,0.04,WUHU216WMR100,2013-03-19 03:38:00,
2013-03-18 22:43:00,26.1,11.7,29.79,WSW,247,16.3,21.5,54,0.00,,,0.04,WUHU216WMR100,2013-03-19 03:43:00,
2013-03-18 22:48:00,25.7,10.9,29.79,West,274,14.7,25.4,53,0.00,,,0.04,WUHU216WMR100,2013-03-19 03:48:00,
2013-03-18 22:53:00,25.5,10.7,29.79,WSW,247,15.8,25.4,53,0.00,,,0.04,WUHU216WMR100,2013-03-19 03:53:00,
2013-03-18 22:58:00,25.2,10.0,29.79,West,272,11.9,19.6,52,0.00,,,0.04,WUHU216WMR100,2013-03-19 03:58:00,
2013-03-18 23:00:00,25.2,10.4,29.79,NW,315,7.1,19.6,53,0.00,,,0.04,WUHU216WMR100,2013-03-19 04:00:00,
2013-03-18 23:05:00,24.8,8.7,29.79,WNW,284,20.2,24.4,50,0.00,,,0.04,WUHU216WMR100,2013-03-19 04:05:00,
2013-03-18 23:11:00,24.6,9.0,29.79,NNW,328,20.2,29.9,51,0.00,,,0.04,WUHU216WMR100,2013-03-19 04:11:00,
2013-03-18 23:15:00,24.4,8.8,29.79,WNW,298,12.6,29.9,51,0.00,,,0.04,WUHU216WMR100,2013-03-19 04:15:00,
2013-03-18 23:20:00,24.4,10.1,29.79,West,262,12.6,17.7,54,0.00,,,0.04,WUHU216WMR100,2013-03-19 04:20:00,
2013-03-18 23:25:00,24.4,10.1,29.79,West,260,17.7,22.9,54,0.00,,,0.04,WUHU216WMR100,2013-03-19 04:25:00,
2013-03-18 23:30:00,24.4,9.7,29.79,WNW,292,18.1,23.9,53,0.00,,,0.04,WUHU216WMR100,2013-03-19 04:30:00,
2013-03-18 23:35:00,24.3,8.7,29.79,WNW,292,21.8,23.9,51,0.00,,,0.04,WUHU216WMR100,2013-03-19 04:35:00,
2013-03-18 23:40:00,24.3,9.1,29.79,West,270,20.6,26.6,52,0.00,,,0.04,WUHU216WMR100,2013-03-19 04:40:00,
2013-03-18 23:45:00,24.1,9.4,29.79,NNW,337,17.7,26.6,53,0.00,,,0.04,WUHU216WMR100,2013-03-19 04:45:00,
2013-03-18 23:50:00,24.1,9.8,29.79,WNW,301,11.4,20.6,54,0.00,,,0.04,WUHU216WMR100,2013-03-19 04:50:00,
2013-03-18 23:55:00,24.1,10.2,29.79,WNW,291,8.9,17.7,55,0.00,,,0.04,WUHU216WMR100,2013-03-19 04:55:00,